Погода в Лисаковске

Казахстан     52°32′38″N   62°29′33″E
темп.,
°C
ветер,
м/с
пор.,
м/с
влажн.,
%
обл.,
%
осадки,
мм/ч
давл.,
гПа
погр.,
м
19 января, ср
ср1900:00−15юз499453 0.0 1026121
03:00−16юз499342 0.0 1026115
06:00−16юз48935 0.0 1026101
09:00−16юз48955 0.0 102795
12:00−14юз489580 0.0 1027132
15:00−11юз489332 0.0 1027159
18:00−13юз469398 0.0 102874
21:00−15юз459498 0.0 102959
20 января, чт
чт2000:00−16юз3595100 0.0 102955
03:00−15юз4693100 0.0 102973
06:00−15ююз359458 0.0 103059
09:00−19юз3399100 0.0 103036
12:00−15ююз3595100 0.0 103086
15:00−12ю2492100 0.0 1029109
18:00−15ю2294100 0.0 102925
21:00−17ююв2297100 0.0 102910
21 января, пт
пт2100:00−16юв2295100 0.0 102822
03:00−16в119580 0.0 10279
06:00−20ссв2210067 0.0 10279
09:00−21св2210055 0.0 102713
12:00−18св239618 0.0 102760
15:00−15ссв348965 0.0 102698
18:00−18ссв33936 0.0 102730
21:00−21ссв2297100 0.0 102824
22 января, сб
сб2200:00−19ссв3396100 0.0 102849
03:00−17ссв2395100 0.0 102867
06:00−16ссв3497100 0.0 102876
09:00−15ссв3597100 0.0 102899
12:00−13св3594100 0.1 1029146
15:00−11ссв3492100 0.0 1028187
18:00−11ссв3695100 0.0 1028162
21:00−12ссв4795100 0.0 1029133
23 января, вс
вс2300:00−11с3694100 0.1 1029167
03:00−13с359453 0.0 103074
06:00−16с369580 0.0 103172
09:00−17с3695100 0.0 103264
12:00−14с4892100 0.0 1033186
15:00−12с3791100 0.0 1033219
18:00−14с3694100 0.0 103482
21:00−16ссз36955 0.0 103568